Location: Strada George Coșbuc
(47.6577°N, 23.5639°E)
Time: 22:17:12
(UTC+03:00)

ISS - Pass Details

Date: 15 September 2017
Orbit: 401 x 407 km, 51.6° (Epoch: 25 September)

Event Time Altitude Azimuth Distance (km) Brightness Sun altitude
Exits shadow 06:19:25 - 294° (WNW) 1,753 -1.1 -8.1°
Reaches altitude 10° 06:20:05 10° 294° (WNW) 1,474 -1.5 -8.0°
Maximum altitude 06:23:24 84° 21° (NNE) 415 -3.8 -7.4°
Drops below altitude 10° 06:26:42 10° 112° (ESE) 1,468 0.0 -6.9°
Sets 06:28:47 0° 113° (ESE) 2,325 1.0 -6.5°
